TimePDT,TemperatureF,Dew PointF,Humidity,Sea Level PressureIn,VisibilityMPH,Wind Direction,Wind SpeedMPH,Gust SpeedMPH,PrecipitationIn,Events,Conditions,WindDirDegrees,DateUTC
12:53 AM,64.9,46.0,50,29.85,10.0,NNW,18.4,25.3,N/A,,Clear,330,2013-09-25 07:53:00
1:53 AM,63.0,46.0,54,29.85,10.0,NNW,15.0,-,N/A,,Clear,330,2013-09-25 08:53:00
2:53 AM,61.0,45.0,56,29.86,10.0,NNW,16.1,23.0,N/A,,Clear,330,2013-09-25 09:53:00
3:53 AM,60.1,44.1,55,29.86,10.0,NW,15.0,20.7,N/A,,Clear,320,2013-09-25 10:53:00
4:53 AM,57.9,44.1,60,29.87,10.0,NW,11.5,-,N/A,,Clear,320,2013-09-25 11:53:00
5:53 AM,57.0,44.1,62,29.88,10.0,WNW,9.2,-,N/A,,Clear,300,2013-09-25 12:53:00
6:53 AM,55.0,44.1,67,29.90,10.0,NNW,5.8,-,N/A,,Clear,330,2013-09-25 13:53:00
7:53 AM,57.0,46.0,67,29.92,10.0,NNE,3.5,-,N/A,,Clear,20,2013-09-25 14:53:00
8:53 AM,62.1,46.0,56,29.92,10.0,NNW,10.4,-,N/A,,Clear,330,2013-09-25 15:53:00
9:53 AM,64.9,45.0,48,29.93,10.0,NNW,13.8,20.7,N/A,,Clear,330,2013-09-25 16:53:00
10:53 AM,66.9,45.0,45,29.91,10.0,NNW,13.8,20.7,N/A,,Clear,340,2013-09-25 17:53:00
11:53 AM,70.0,44.1,39,29.89,10.0,NW,13.8,18.4,N/A,,Clear,320,2013-09-25 18:53:00
12:53 PM,71.1,44.1,38,29.87,10.0,NW,8.1,17.3,N/A,,Clear,320,2013-09-25 19:53:00
1:53 PM,72.0,45.0,38,29.84,9.0,NW,12.7,19.6,N/A,,Clear,320,2013-09-25 20:53:00
2:53 PM,75.0,42.1,31,29.82,8.0,North,10.4,19.6,N/A,,Clear,350,2013-09-25 21:53:00
3:53 PM,73.9,39.9,29,29.80,10.0,NW,10.4,-,N/A,,Clear,320,2013-09-25 22:53:00
4:53 PM,75.0,37.9,26,29.78,10.0,NNW,11.5,19.6,N/A,,Clear,340,2013-09-25 23:53:00
5:53 PM,73.0,36.0,26,29.76,10.0,North,8.1,18.4,N/A,,Clear,350,2013-09-26 00:53:00
6:53 PM,70.0,36.0,29,29.75,10.0,NNW,9.2,-,N/A,,Clear,340,2013-09-26 01:53:00
7:53 PM,66.9,39.0,36,29.76,10.0,NNW,11.5,-,N/A,,Clear,330,2013-09-26 02:53:00
8:53 PM,64.9,39.0,39,29.76,10.0,NW,12.7,-,N/A,,Clear,320,2013-09-26 03:53:00
9:53 PM,63.0,39.9,43,29.77,10.0,NNW,11.5,-,N/A,,Clear,330,2013-09-26 04:53:00
10:53 PM,61.0,41.0,48,29.78,10.0,NW,12.7,-,N/A,,Clear,310,2013-09-26 05:53:00
11:53 PM,59.0,41.0,51,29.78,10.0,NW,10.4,-,N/A,,Clear,310,2013-09-26 06:53:00